{"data":{"norad_id":62849,"intl_designator":"2025-019W","name":"STARLINK-32809","alt_names":[],"object_type":"PAYLOAD","status":"ACTIVE","operator":null,"country":"US","launch_date":"2025-01-27","launch_site_code":"AFETR","launch_vehicle":null,"mission":null,"orbit_class":"UNKNOWN","rcs_meters":null,"size_class":null,"mass_kg":null,"dimensions":null,"purposes":["comms"],"wikipedia_slug":null,"has_3d_model":false,"image_url":null,"decayed_at":null,"tle_current":{"epoch":"2026-09-21T18:40:46.067808Z","epoch_age_seconds":57770,"freshness":"FRESH","line1":"1 62849U 25019W   26264.77831097  .00016951  00000+0  62396-3 0  9998","line2":"2 62849  42.9993  61.2699 0001866 267.2178  92.8460 15.27586067 92247","mean_motion":15.27586067,"eccentricity":0.0001866,"inclination_deg":42.9993,"raan_deg":61.2699,"arg_perigee_deg":267.2178,"mean_anomaly_deg":92.846,"bstar":0.00062396,"rev_number":9224,"period_min":94.266374321415,"perigee_km":481.75063538358,"apogee_km":484.3112232548,"semimajor_km":6861.1679293192,"source":"CELESTRAK","updated_at":"2026-09-22T09:00:49.675261Z"}}}